Location: Amon Carter Post Office
(32.8281°N, 97.0484°W)
Time: 11:52:56
(UTC+00:00)

Sich 1 - Pass Details

Date: 08 July 2022
Orbit: 593 x 623 km, 82.5° (Epoch: 09 August)

Event Time Altitude Azimuth Distance (km) Brightness Sun altitude
Exits shadow 08:22:24 16° 98° (E) 1,564 5.3 -28.9°
Maximum altitude 08:22:57 17° 88° (E) 1,545 5.4 -28.8°
Drops below altitude 10° 08:25:41 10° 48° (NE) 1,937 6.5 -28.6°
Sets 08:28:32 0° 28° (NNE) 2,840 7.7 -28.3°
